Regional Weather Roundup
Issued by NWS Albany, NY

Home | Current Version | Previous Version | Text Only | Print | Product List | Glossary On
Versions: 1 2 3 4 5 6 7 8 9 10 11 12 13 14 15 16 17 18 19 20 21 22 23 24 25 26 27 28
000
ASUS41 KALY 011510
RWRALY

NEW YORK STATE HOURLY WEATHER ROUNDUP
NATIONAL WEATHER SERVICE ALBANY NY
1000 AM EST THU DEC 01 2016

NOTE: "FAIR" INDICATES FEW OR NO CLOUDS BELOW 12,000 FEET WITH NO
SIGNIFICANT WEATHER AND/OR NO OBSTRUCTIONS TO VISIBILITY.

NYZ032-033-038>043-046>054-057>066-NYZ062>081-082-084-011600-
EAST


CITY           SKY/WX    TMP DP  RH WIND       PRES   REMARKS
ALBANY         PTSUNNY   48  37  65 W12G20    29.60R
GLENS FALLS    CLOUDY    50  40  68 W8        29.55R
POUGHKEEPSIE   SUNNY     51  37  58 W15G26    29.61R
NEWBURGH       MOSUNNY   50  41  71 NW17G26   29.63R
MONTGOMERY     CLOUDY    52  39  61 W10G23    29.62R
WHITE PLAINS   MOSUNNY   53  38  56 W17G25    29.62R
ISLIP          MOSUNNY   56  41  57 W20       29.62R
NEW YORK CITY  MOSUNNY   55  38  52 W14G23    29.65R
CENTRAL PARK   MOSUNNY   53  38  56 W10G22    29.68R
$$

NYZ005>009-017-018-044>046-055-056-011600-
CENTRAL


CITY           SKY/WX    TMP DP  RH WIND       PRES   REMARKS
FULTON         LGT RAIN  43  36  76 W13G21    29.62R
SYRACUSE       LGT RAIN  42  37  82 W15       29.62R
ROME           CLOUDY    44  35  70 W12       29.62R
ELMIRA         CLOUDY    43  32  65 W7        29.65R
BINGHAMTON     CLOUDY    39  32  76 W13       29.62R WCI  31
MONTICELLO     CLOUDY    43  37  81 W13       29.63R
$$

NYZ026>034-041>043-087-011600-
NORTH


CITY           SKY/WX    TMP DP  RH WIND       PRES   REMARKS
WATERTOWN      CLOUDY    44  36  73 W23G36    29.57R
FORT DRUM      NOT AVBL
OGDENSBURG     CLOUDY    44  39  82 SW12G21   29.51R
MASSENA        CLOUDY    46  38  73 SW24G32   29.48R
SARANAC LAKE   CLOUDY    40  35  83 SW8G17    29.47R WCI  34
PLATTSBURGH    CLOUDY    49  40  71 SW8       29.48R
$$

NYZ001>004-010>016-019>021-085-011600-
WEST


CITY           SKY/WX    TMP DP  RH WIND       PRES   REMARKS
NIAGARA FALLS  PTSUNNY   43  33  68 W13G26    29.65R
BUFFALO        LGT SNOW  37  33  85 W21G26    29.66R FOG     WCI  26
DUNKIRK        CLOUDY    40  30  67 SW16G26   29.69S WCI  31
JAMESTOWN      CLOUDY    36  27  69 SW22      29.67S WCI  24
WELLSVILLE     CLOUDY    36  27  69 W16G26    29.66R WCI  26
ROCHESTER      LGT RAIN  42  36  79 W16G25    29.63S
PENN YAN       CLOUDY    43  30  60 W21G30    29.64R
$$

             KEY
       WCI = WIND CHILL INDEX
       VSB = VISIBILITY
       HX  = HEAT INDEX
$$




USA.gov is the U.S. government's official web portal to all federal, state and local government web resources and services.